Hourly Data Report for February 20, 2011

HALIFAX STANFIELD INT'L A
NOVA SCOTIA

44°52'48.060" N
63°30'00.050" W
145.40 m
8202250
71395
YHZ

Download Data

Hourly Data (February 2011)
Hourly Data Report for February 20, 2011
TIME
LST
Temp Definition
°C
Dew Point Definition
°C
Rel Hum Definition
%
Precip. Amount Definition
mm

Wind Dir Definition
10's deg

Wind Spd Definition
km/h
Visibility Definition
km
Stn Press Definition
kPa
Hmdx Definition


Wind Chill Definition


Weather Definition


00:00 -2.0 -2.7 95   33 32 2.4 97.10   -9 Snow, Fog
01:00 -2.2 -3.0 94   33 33 4.0 97.18   -10 Snow
02:00 -2.1 -3.1 93   34 28 9.7 97.25   -9 Snow
03:00 -2.1 -3.3 91   34 30 16.1 97.32   -9 Snow
04:00 -2.1 -3.3 91   33 30 19.3 97.36   -9 Snow
05:00 -1.9 -3.3 90   33 41 16.1 97.45   -10 Snow
06:00 -1.9 -3.2 91   33 33 16.1 97.54   -9 Snow
07:00 -1.8 -2.8 93   33 33 12.9 97.62   -9 Snow
08:00 -1.4 -2.8 90   33 37 19.3 97.71   -9 Snow
09:00 -0.8 -2.2 90   34 39 24.1 97.82   -8 Mostly Cloudy
10:00 -0.1 -1.5 90   34 33 24.1 97.94   -7 Snow Showers
11:00 0.4 -0.5 94   34 32 19.3 98.03     Snow Showers
12:00 0.1 0.1 100   35 30 3.2 98.11     Snow Showers
13:00 0.1 0.1 100   34 20 6.4 98.18     Snow Showers
14:00 0.2 0.2 100   34 30 2.4 98.24     Snow Showers
15:00 0.0 0.0 100   35 32 2.4 98.34   -7 Snow Showers
16:00 -0.3 -0.3 100   36 22 2.4 98.45   -6 Snow Showers
17:00 -0.1 -0.2 99   35 26 24.1 98.55   -6 Cloudy
18:00 -0.4 -0.5 99   34 28 24.1 98.65   -7 Cloudy
19:00 -0.6 -0.6 100   34 28 24.1 98.74   -7 Cloudy
20:00 -0.7 -0.9 99   33 22 4.8 98.76   -6 Snow
21:00 -0.7 -1.3 96   33 17 24.1 98.75   -6 Cloudy
22:00 -0.9 -1.2 98   31 15 24.1 98.81   -6 Cloudy
23:00 -1.0 -1.5 96   31 19 9.7 98.81   -6 Snow Showers, Fog

Notes on Data Quality.

Legend

  • E = Estimated
  • M = Missing
  • NA = Not Available*
  • [empty] = Indicates an unobserved value
Date modified: